| time (UTC) | temp F | wind direction | speed MPH | gust MPH | rain 1hr in | rain 24hr in | rain mn in | humidity % | barometer mb |
| 20260510092301 | 54 | 55 | 5.0 | 19.0 | 0.00 | 0.00 | 0.00 | 74 | 1017.2 |
| 20260510082302 | 53 | 15 | 5.0 | 16.0 | 0.00 | 0.00 | 0.00 | 76 | 1017.7 |
| 20260510072305 | 51 | 21 | 5.0 | 16.0 | 0.00 | 0.00 | 0.00 | 83 | 1017.5 |
| 20260510052300 | 49 | 63 | 4.0 | 14.0 | 0.00 | 0.00 | 0.00 | 90 | 1017.2 |
| 20260510042305 | 49 | 54 | 4.0 | 11.0 | 0.00 | 0.00 | 0.00 | 91 | 1017.2 |
| 20260510032301 | 49 | 42 | 5.0 | 12.0 | 0.00 | 0.00 | 0.00 | 92 | 1017.7 |
| 20260510022301 | 48 | 0 | 5.0 | 11.0 | 0.00 | 0.00 | 0.00 | 90 | 1017.6 |
| 20260510012301 | 50 | 53 | 4.0 | 9.0 | 0.00 | 0.00 | 0.00 | 86 | 1017.8 |
| 20260510002301 | 51 | 36 | 3.0 | 8.0 | 0.00 | 0.00 | 0.00 | 79 | 1017.7 |
| 20260509232306 | 52 | 40 | 2.0 | 7.0 | 0.00 | 0.00 | 0.00 | 80 | 1017.9 |
| 20260509222301 | 53 | 48 | 2.0 | 6.0 | 0.00 | 0.00 | 0.00 | 72 | 1017.8 |
| 20260509212305 | 55 | 32 | 1.0 | 5.0 | 0.00 | 0.00 | 0.00 | 64 | 1017.7 |
| 20260509202306 | 57 | 46 | 0.0 | 6.0 | 0.00 | 0.00 | 0.00 | 57 | 1017.3 |
| 20260509192300 | 58 | 58 | 1.0 | 5.0 | 0.00 | 0.00 | 0.00 | 57 | 1016.8 |
| 20260509182300 | 61 | 119 | 1.0 | 7.0 | 0.00 | 0.00 | 0.00 | 52 | 1016.9 |
| 20260509172259 | 63 | 110 | 1.0 | 7.0 | 0.00 | 0.00 | 0.00 | 51 | 1016.5 |
| 20260509162259 | 66 | 78 | 3.0 | 9.0 | 0.00 | 0.00 | 0.00 | 45 | 1016.7 |
| 20260509152259 | 68 | 0 | 2.0 | 10.0 | 0.00 | 0.00 | 0.00 | 45 | 1016.9 |
| 20260509142300 | 69 | 215 | 1.0 | 8.0 | 0.00 | 0.00 | 0.00 | 49 | 1016.3 |
| 20260509132313 | 68 | 38 | 3.0 | 9.0 | 0.00 | 0.00 | 0.00 | 47 | 1016.6 |
| 20260509122306 | 68 | 105 | 2.0 | 10.0 | 0.00 | 0.00 | 0.00 | 47 | 1017.1 |
| 20260509112259 | 67 | 46 | 2.0 | 7.0 | 0.00 | 0.00 | 0.00 | 51 | 1017.6 |
| 20260509102259 | 65 | 51 | 2.0 | 8.0 | 0.00 | 0.00 | 0.00 | 58 | 1018.2 |